Zurück zum Katalog

NOAA 16 DEB

AktivSSO
NORAD 42390·DEBRIS·🇺🇸 United States

Gestartet Sep 21, 2000 von Vandenberg Space Force Base

Loading…

Nächste Überflüge (nächste 24 Stunden)

TLE

AktuellSource: Space-Track

Epoche: Sep 14, 2026, 03:58 UTC

1 42390U 00055SJ  26257.16592084  .00001652  00000-0  66023-3 0  9999
2 42390  98.6162 330.6498 0013288 273.3563  86.6099 14.29746413547090

Verfolge NOAA 16 DEB in Echtzeit mit AllMySat

Download on the App Store